Home   Weather   Wegberg   Past weeks

Flag for Germany Past Weather in Wegberg, North Rhine-Westphalia, Germany — Yesterday and Last 2 Weeks

43 °F

Passing clouds.

Feels Like: 41 °F
Forecast: 39 / 52 °F
Wind: 3 mph from North

Location: Monchengladbach Airport

Current Time: Oct 22, 2016 at 7:58:30 PM

Latest Report: Oct 22, 2016 at 7:20 PM

Visibility: 4 mi

Pressure: 29.98 "Hg

Humidity: 87%

Dew Point: 39 °F

Location of WegbergLocation

Past Weather in Wegberg — Graph


Wegberg Temperature Yesterday

Maximum temperature yesterday: 46 °F (at 12:50 PM)
Minimum temperature yesterday: 45 °F (at 7:50 AM)
Average temperature yesterday: 46 °F

High & Low Weather Summary for the Past Weeks

High66 °F (Oct 16, 3:20 PM)100% (Oct 11, 7:50 AM)30.30 "Hg (Oct 11, 7:50 AM)
Low34 °F (Oct 11, 7:50 AM)47% (Oct 9, 3:50 PM)29.68 "Hg (Oct 14, 7:50 PM)
Average51 °F79%30.05 "Hg
* Reported Oct 7 6:20 PM — Oct 22 6:20 PM, Wegberg, Weather by CustomWeather, © 2016

Note: Actual official high and low records may vary slightly from our data, if they occured in-between our weather recording intervals... More about our weather records


Wegberg Weather History for the Previous 24 Hours

Scroll right to see more
Time TempWeatherWind HumidityBarometerVisibility
6:20 PM
Sat, Oct 22
45 °FPassing clouds.6 mph81%29.95 "Hg5 mi
5:50 PM48 °FPassing clouds.7 mph71%29.95 "Hg6 mi
5:20 PM48 °FPassing clouds.7 mph71%29.95 "Hg6 mi
4:50 PM48 °FPassing clouds.8 mph71%29.95 "HgN/A
4:20 PM50 °FPassing clouds.9 mph67%29.95 "HgN/A
3:50 PM48 °FPassing clouds.10 mph71%29.95 "Hg4 mi
3:20 PM48 °FPassing clouds.6 mph76%29.95 "Hg5 mi
2:50 PM48 °FPassing clouds.7 mph71%29.95 "Hg5 mi
2:20 PM48 °FPassing clouds.5 mph71%29.95 "Hg5 mi
1:50 PM48 °FPassing clouds.5 mph76%29.95 "Hg5 mi
1:20 PM46 °FPassing clouds.7 mph76%29.95 "Hg5 mi
12:50 PM48 °FPassing clouds.7 mph76%29.95 "Hg6 mi
12:20 PM48 °FPassing clouds.6 mph82%29.95 "Hg5 mi
11:50 AM46 °FPassing clouds.8 mph87%29.95 "Hg5 mi
11:20 AM46 °FPassing clouds.8 mph87%29.95 "Hg5 mi
10:50 AM46 °FPassing clouds.7 mph87%29.95 "Hg4 mi
10:20 AM46 °FPassing clouds.7 mph93%29.95 "Hg4 mi
9:50 AM46 °FPassing clouds.7 mph93%29.92 "Hg4 mi
9:20 AM46 °FFog.7 mph93%29.92 "Hg3 mi
8:50 AM46 °FDrizzle. Fog.7 mph100%29.92 "Hg3 mi
8:20 AM46 °FDrizzle. Fog.8 mph100%29.92 "Hg2 mi
7:50 AM48 °FFog.6 mph94%29.92 "Hg2 mi
7:50 PM
Fri, Oct 21
46 °FRain. Passing clouds.6 mph87%29.95 "Hg2 mi
7:20 PM46 °FPassing clouds.5 mph87%29.95 "Hg4 mi
Weather by CustomWeather, © 2016

See weather overviewHow to use our weather pages